LA5PPA-1 Weather Reports


Display with metric or nautical units.
time (UTC)temp
F
wind
direction
speed
MPH
gust
MPH
rain 1hr
in
rain 24hr
in
rain mn
in
humidity
%
barometer
mb
20260509070848 43 225 0.0 6.0 0.00 0.00 0.00 60 1023.9
20260509070647 43 358 1.0 6.0 0.00 0.00 0.00 59 1023.9
20260509070147 43 73 0.0 4.0 0.00 0.00 0.00 60 1023.9
20260509065748 43 267 4.0 4.0 0.00 0.00 0.00 60 1023.9
20260509065647 43 310 0.0 4.0 0.00 0.00 0.00 60 1023.9
20260509065147 42 43 2.0 5.0 0.00 0.00 0.00 61 1023.8
20260509064647 42 323 0.0 7.0 0.00 0.00 0.00 61 1023.8
20260509064147 42 277 1.0 5.0 0.00 0.00 0.00 62 1023.8
20260509063647 42 0 2.0 6.0 0.00 0.00 0.00 63 1023.7
20260509063548 41 26 0.0 3.0 0.00 0.00 0.00 63 1023.8
20260509063147 41 358 1.0 5.0 0.00 0.00 0.00 63 1023.8
20260509062647 41 315 1.0 8.0 0.00 0.00 0.00 63 1023.9
20260509062448 41 351 0.0 8.0 0.00 0.00 0.00 63 1023.9
20260509062147 41 275 7.0 7.0 0.00 0.00 0.00 63 1023.9
20260509061647 41 195 2.0 5.0 0.00 0.00 0.00 64 1023.8
20260509061349 40 300 1.0 5.0 0.00 0.00 0.00 64 1023.8
20260509061147 40 260 0.0 6.0 0.00 0.00 0.00 64 1023.8
20260509060647 40 150 3.0 6.0 0.00 0.00 0.00 64 1023.9
20260509060249 40 338 0.0 8.0 0.00 0.00 0.00 64 1023.9
20260509060147 40 330 1.0 8.0 0.00 0.00 0.00 64 1023.9
20260509055647 40 291 0.0 6.0 0.00 0.00 0.00 64 1024.0
20260509055147 40 271 1.0 7.0 0.00 0.00 0.00 65 1024.0
20260509054648 40 278 0.0 8.0 0.00 0.00 0.00 64 1024.0
20260509054148 40 247 2.0 5.0 0.00 0.00 0.00 65 1023.9
20260509054049 40 320 1.0 5.0 0.00 0.00 0.00 65 1024.0
20260509053648 39 102 0.0 4.0 0.00 0.00 0.00 65 1024.0
20260509053148 39 331 3.0 5.0 0.00 0.00 0.00 65 1024.1
20260509052949 39 344 0.0 5.0 0.00 0.00 0.00 65 1024.1
20260509052648 39 309 1.0 5.0 0.00 0.00 0.00 65 1024.1
20260509052148 39 329 0.0 8.0 0.00 0.00 0.00 65 1024.2
20260509051849 39 168 6.0 6.0 0.00 0.00 0.00 65 1024.2
20260509051648 39 257 3.0 4.0 0.00 0.00 0.00 66 1024.2
20260509051148 39 338 0.0 4.0 0.00 0.00 0.00 66 1024.2
20260509050749 38 302 1.0 4.0 0.00 0.00 0.00 66 1024.2
20260509050648 38 129 0.0 8.0 0.00 0.00 0.00 66 1024.3
20260509050148 38 119 3.0 10.0 0.00 0.00 0.00 67 1024.3
20260509045648 38 286 0.0 4.0 0.00 0.00 0.00 67 1024.3
20260509045148 38 267 1.0 6.0 0.00 0.00 0.00 67 1024.5
20260509044648 38 275 1.0 6.0 0.00 0.00 0.00 67 1024.2
20260509044549 38 262 1.0 6.0 0.00 0.00 0.00 67 1024.3
20260509044148 38 358 6.0 6.0 0.00 0.00 0.00 67 1024.3
20260509043648 38 286 1.0 5.0 0.00 0.00 0.00 67 1024.3
20260509043449 38 261 0.0 5.0 0.00 0.00 0.00 67 1024.3
20260509043148 38 281 0.0 3.0 0.00 0.00 0.00 67 1024.5
20260509042648 38 323 1.0 4.0 0.00 0.00 0.00 67 1024.5
20260509042349 38 317 1.0 5.0 0.00 0.00 0.00 67 1024.5
20260509042148 38 261 0.0 5.0 0.00 0.00 0.00 67 1024.3
20260509041648 38 139 1.0 2.0 0.00 0.00 0.00 66 1024.3
20260509041249 38 296 2.0 6.0 0.00 0.00 0.00 66 1024.3
20260509041148 37 330 0.0 6.0 0.00 0.00 0.00 66 1024.3
20260509040648 37 43 0.0 3.0 0.00 0.00 0.00 66 1024.5
20260509040148 37 233 0.0 5.0 0.00 0.00 0.00 66 1024.5
20260509035648 37 310 1.0 3.0 0.00 0.00 0.00 65 1024.5
20260509035148 37 70 0.0 5.0 0.00 0.00 0.00 66 1024.3
20260509035049 37 168 2.0 5.0 0.00 0.00 0.00 66 1024.5
20260509034648 37 243 2.0 4.0 0.00 0.00 0.00 66 1024.5
20260509034148 37 271 1.0 3.0 0.00 0.00 0.00 66 1024.6
20260509033949 37 323 0.0 7.0 0.00 0.00 0.00 66 1024.6
20260509033648 37 277 1.0 7.0 0.00 0.00 0.00 67 1024.6
20260509033148 37 53 0.0 2.0 0.00 0.00 0.00 67 1024.6
20260509032849 37 289 0.0 0.0 0.00 0.00 0.00 67 1024.7
20260509032648 37 180 0.0 1.0 0.00 0.00 0.00 67 1024.7
20260509032148 37 180 0.0 4.0 0.00 0.00 0.00 66 1024.7
20260509031749 37 244 0.0 3.0 0.00 0.00 0.00 66 1024.7
20260509031648 37 244 0.0 3.0 0.00 0.00 0.00 66 1024.8
20260509031148 37 295 2.0 3.0 0.00 0.00 0.00 66 1024.8
20260509030648 37 137 2.0 3.0 0.00 0.00 0.00 65 1024.8
20260509030148 37 216 0.0 4.0 0.00 0.00 0.00 65 1024.8
20260509025648 37 329 0.0 3.0 0.00 0.00 0.00 65 1024.8
20260509025549 37 329 0.0 3.0 0.00 0.00 0.00 65 1024.8
20260509025148 37 358 1.0 1.0 0.00 0.00 0.00 65 1024.8
20260509024648 37 25 0.0 3.0 0.00 0.00 0.00 65 1024.8
20260509024449 37 358 1.0 3.0 0.00 0.00 0.00 65 1024.9
20260509024148 37 102 0.0 3.0 0.00 0.00 0.00 65 1024.9
20260509023648 37 312 1.0 1.0 0.00 0.00 0.00 65 1025.0
20260509023349 37 350 0.0 9.0 0.00 0.00 0.00 65 1025.0
20260509023148 37 350 0.0 9.0 0.00 0.00 0.00 65 1025.0
20260509022648 37 23 0.0 5.0 0.00 0.00 0.00 65 1025.0
20260509022249 37 177 0.0 4.0 0.00 0.00 0.00 64 1025.1
20260509022148 37 177 0.0 4.0 0.00 0.00 0.00 64 1025.1
20260509021648 37 289 1.0 2.0 0.00 0.00 0.00 65 1025.1
20260509021148 37 184 0.0 2.0 0.00 0.00 0.00 64 1025.1
20260509020648 37 274 0.0 1.0 0.00 0.00 0.00 64 1025.1
20260509020148 38 43 0.0 2.0 0.00 0.00 0.00 64 1025.1
20260509020049 38 94 0.0 2.0 0.00 0.00 0.00 64 1025.1
20260509015648 38 94 0.0 2.0 0.00 0.00 0.00 63 1025.1
20260509015148 38 285 0.0 0.0 0.00 0.00 0.00 63 1025.1
20260509014949 38 285 0.0 1.0 0.00 0.00 0.00 63 1025.1
20260509014648 38 285 0.0 2.0 0.00 0.00 0.00 62 1025.1
20260509014148 38 142 0.0 3.0 0.00 0.00 0.00 62 1025.1
20260509013849 38 315 0.0 0.0 0.00 0.00 0.00 62 1025.0
20260509013648 38 315 0.0 0.0 0.00 0.00 0.00 62 1025.1
20260509013148 38 315 0.0 0.0 0.00 0.00 0.00 61 1025.1
20260509012749 38 315 0.0 0.0 0.00 0.00 0.00 61 1025.1
20260509012648 38 315 0.0 2.0 0.00 0.00 0.00 61 1025.1
20260509012148 38 194 2.0 3.0 0.00 0.00 0.00 61 1025.1
20260509011648 39 94 0.0 3.0 0.00 0.00 0.00 60 1025.1
20260509011148 39 281 0.0 2.0 0.00 0.00 0.00 60 1025.1
20260509010648 39 106 1.0 9.0 0.00 0.00 0.00 60 1024.9
20260509010549 39 298 1.0 3.0 0.00 0.00 0.00 61 1025.0
20260509010148 39 289 0.0 5.0 0.00 0.00 0.00 60 1025.1
20260509005648 39 129 0.0 2.0 0.00 0.00 0.00 60 1025.0
20260509005449 39 210 0.0 2.0 0.00 0.00 0.00 60 1025.0
20260509005148 39 336 0.0 5.0 0.00 0.00 0.00 60 1025.1
20260509004648 39 147 0.0 4.0 0.00 0.00 0.00 60 1025.1
20260509004349 39 300 0.0 3.0 0.00 0.00 0.00 60 1025.1
20260509004148 39 226 1.0 4.0 0.00 0.00 0.00 60 1025.1
20260509003648 39 257 4.0 4.0 0.00 0.00 0.00 60 1025.1
20260509003249 39 220 1.0 2.0 0.00 0.00 0.00 61 1025.0
20260509003148 39 151 0.0 3.0 0.00 0.00 0.00 61 1025.1
20260509002648 39 295 1.0 4.0 0.00 0.00 0.00 61 1025.0
20260509002148 39 66 0.0 2.0 0.00 0.00 0.00 61 1025.0
20260509001648 39 316 0.0 5.0 0.00 0.00 0.00 61 1025.1
20260509001148 39 317 0.0 4.0 0.00 0.00 0.00 61 1025.1
20260509001049 39 317 0.0 4.0 0.00 0.00 0.00 62 1025.1
20260509000648 39 351 0.0 3.0 0.00 0.00 0.00 62 1025.1
20260509000148 39 298 0.0 6.0 0.00 0.00 0.00 61 1025.2
20260508235949 39 310 0.0 6.0 0.00 0.00 0.00 62 1025.2
20260508235648 39 127 1.0 4.0 0.00 0.00 0.00 62 1025.2
20260508235148 39 46 0.0 3.0 0.00 0.00 0.00 62 1025.2
20260508234849 39 188 1.0 3.0 0.00 0.00 0.00 62 1025.2
20260508234648 39 324 0.0 3.0 0.00 0.00 0.00 62 1025.2
20260508234148 39 241 0.0 7.0 0.00 0.00 0.00 63 1025.2
20260508233749 39 330 0.0 2.0 0.00 0.00 0.00 64 1025.2
20260508233648 39 330 0.0 2.0 0.00 0.00 0.00 63 1025.2
20260508233148 39 352 1.0 2.0 0.00 0.00 0.00 64 1025.2
20260508232648 39 323 2.0 3.0 0.00 0.00 0.00 64 1025.2
20260508232148 39 358 1.0 2.0 0.00 0.00 0.00 64 1025.2
20260508231648 39 234 0.0 1.0 0.00 0.00 0.00 64 1025.1
20260508231549 39 234 0.0 1.0 0.00 0.00 0.00 64 1025.2
20260508231148 39 22 0.0 1.0 0.00 0.00 0.00 64 1025.4
20260508230648 39 326 0.0 1.0 0.00 0.00 0.00 64 1025.4
20260508230449 39 326 0.0 1.0 0.00 0.00 0.00 64 1025.4
20260508230148 39 340 0.0 1.0 0.00 0.00 0.00 63 1025.4
20260508225648 39 11 0.0 2.0 0.00 0.00 0.00 63 1025.4
20260508225349 39 11 0.0 3.0 0.00 0.00 0.00 63 1025.4
20260508225148 40 347 1.0 3.0 0.00 0.00 0.00 63 1025.4
20260508224648 40 322 0.0 5.0 0.00 0.00 0.00 62 1025.4
20260508224249 40 250 2.0 5.0 0.00 0.00 0.00 62 1025.5
20260508224148 40 60 0.0 2.0 0.00 0.00 0.00 62 1025.5
20260508223648 40 188 0.0 1.0 0.00 0.00 0.00 61 1025.4
20260508223148 40 122 1.0 3.0 0.00 0.00 0.00 61 1025.4
20260508222648 40 4 0.0 2.0 0.00 0.00 0.00 61 1025.2
20260508222148 40 340 0.0 1.0 0.00 0.00 0.00 61 1025.1
20260508222049 40 340 0.0 1.0 0.00 0.00 0.00 61 1025.2
20260508221648 40 320 0.0 3.0 0.00 0.00 0.00 60 1025.2
20260508221148 40 222 1.0 2.0 0.00 0.00 0.00 60 1025.2
20260508220949 40 331 0.0 2.0 0.00 0.00 0.00 60 1025.2
20260508220829 40 315 0.0 2.0 0.00 0.00 0.00 60 1025.2
20260508220148 40 286 0.0 1.0 0.00 0.00 0.00 60 1025.2
20260508215849 40 18 0.0 1.0 0.00 0.00 0.00 60 1025.2
20260508215648 40 296 0.0 1.0 0.00 0.00 0.00 60 1025.2
20260508215148 40 303 0.0 2.0 0.00 0.00 0.00 60 1025.2
20260508214749 40 307 0.0 1.0 0.00 0.00 0.00 60 1025.4
20260508214648 40 344 0.0 1.0 0.00 0.00 0.00 60 1025.2
20260508214148 40 306 0.0 1.0 0.00 0.00 0.00 59 1025.2
20260508213648 40 312 0.0 2.0 0.00 0.00 0.00 59 1025.2
20260508213148 40 191 0.0 1.0 0.00 0.00 0.00 59 1025.2
20260508212648 40 241 0.0 0.0 0.00 0.00 0.00 59 1025.1
20260508212549 40 241 0.0 0.0 0.00 0.00 0.00 59 1025.2
20260508212148 40 241 0.0 0.0 0.00 0.00 0.00 58 1025.2
20260508211648 41 241 0.0 1.0 0.00 0.00 0.00 58 1025.2
20260508211449 41 312 0.0 0.0 0.00 0.00 0.00 58 1025.2
20260508211148 41 312 0.0 0.0 0.00 0.00 0.00 58 1025.2
20260508210648 41 312 0.0 1.0 0.00 0.00 0.00 57 1025.1
20260508210351 41 312 0.0 1.0 0.00 0.00 0.00 57 1025.1
20260508210148 41 312 0.0 1.0 0.00 0.00 0.00 57 1025.1
20260508205648 41 142 0.0 2.0 0.00 0.00 0.00 57 1025.1
20260508205249 41 167 0.0 3.0 0.00 0.00 0.00 57 1025.1
20260508205148 41 167 0.0 3.0 0.00 0.00 0.00 57 1025.1
20260508204648 41 281 0.0 1.0 0.00 0.00 0.00 56 1025.1
20260508204148 41 270 0.0 0.0 0.00 0.00 0.00 56 1025.1
20260508203648 41 270 0.0 0.0 0.00 0.00 0.00 55 1025.0
20260508203148 41 270 0.0 0.0 0.00 0.00 0.00 55 1024.9
20260508203049 41 270 0.0 0.0 0.00 0.00 0.00 55 1025.0
20260508202648 42 270 0.0 2.0 0.00 0.00 0.00 54 1025.1
20260508202148 41 293 0.0 5.0 0.00 0.00 0.00 54 1025.0
20260508201949 41 151 0.0 4.0 0.00 0.00 0.00 54 1025.0
20260508201648 41 260 1.0 5.0 0.00 0.00 0.00 54 1025.0
20260508201149 42 279 0.0 4.0 0.00 0.00 0.00 54 1024.9
20260508200849 42 295 1.0 4.0 0.00 0.00 0.00 54 1024.9
20260508200648 42 296 3.0 4.0 0.00 0.00 0.00 53 1024.9
20260508200148 42 299 2.0 6.0 0.00 0.00 0.00 53 1024.8
20260508195749 42 282 3.0 5.0 0.00 0.00 0.00 53 1024.8
20260508195648 42 279 4.0 5.0 0.00 0.00 0.00 53 1024.8
20260508195148 42 250 4.0 6.0 0.00 0.00 0.00 52 1024.8
20260508194648 42 299 2.0 5.0 0.00 0.00 0.00 52 1024.8
20260508194148 42 244 3.0 6.0 0.00 0.00 0.00 52 1024.7
20260508193648 43 262 0.0 6.0 0.00 0.00 0.00 51 1024.6
20260508193549 43 262 2.0 6.0 0.00 0.00 0.00 51 1024.7
20260508193148 43 281 3.0 5.0 0.00 0.00 0.00 51 1024.7
20260508192648 43 281 2.0 5.0 0.00 0.00 0.00 51 1024.6
20260508192449 43 310 1.0 5.0 0.00 0.00 0.00 51 1024.6
20260508192148 43 260 1.0 7.0 0.00 0.00 0.00 50 1024.7
20260508191648 44 303 2.0 4.0 0.00 0.00 0.00 50 1024.6
20260508191351 44 237 0.0 7.0 0.00 0.00 0.00 50 1024.6
20260508191148 44 260 3.0 7.0 0.00 0.00 0.00 49 1024.6
20260508190648 44 213 1.0 5.0 0.00 0.00 0.00 49 1024.6
20260508190249 45 281 0.0 5.0 0.00 0.00 0.00 48 1024.5
20260508190148 45 234 4.0 5.0 0.00 0.00 0.00 48 1024.6
20260508185648 45 230 0.0 7.0 0.00 0.00 0.00 48 1024.6
20260508185148 45 298 1.0 9.0 0.00 0.00 0.00 48 1024.5
20260508184648 45 191 1.0 8.0 0.00 0.00 0.00 48 1024.6
20260508184148 45 213 0.0 7.0 0.00 0.00 0.00 48 1024.5
20260508184049 45 292 2.0 7.0 0.00 0.00 0.00 48 1024.7
20260508183648 45 265 5.0 7.0 0.00 0.00 0.00 48 1024.6
20260508183148 45 275 5.0 8.0 0.00 0.00 0.00 48 1024.6
20260508182949 45 316 0.0 8.0 0.00 0.00 0.00 48 1024.6
20260508182648 45 310 7.0 7.0 0.00 0.00 0.00 48 1024.6
20260508182148 45 260 0.0 7.0 0.00 0.00 0.00 48 1024.6
20260508181850 45 281 5.0 7.0 0.00 0.00 0.00 48 1024.6
20260508181649 45 306 0.0 7.0 0.00 0.00 0.00 48 1024.6
20260508181148 45 320 1.0 7.0 0.00 0.00 0.00 48 1024.6
20260508180749 45 281 1.0 7.0 0.00 0.00 0.00 48 1024.6
20260508180648 45 293 3.0 3.0 0.00 0.00 0.00 48 1024.6
20260508180148 45 212 1.0 7.0 0.00 0.00 0.00 47 1024.6
20260508175648 45 52 2.0 6.0 0.00 0.00 0.00 47 1024.5
20260508175148 45 127 1.0 5.0 0.00 0.00 0.00 47 1024.5
20260508174648 45 270 1.0 7.0 0.00 0.00 0.00 47 1024.5
20260508174550 45 344 0.0 7.0 0.00 0.00 0.00 46 1024.6
20260508174148 46 282 0.0 8.0 0.00 0.00 0.00 47 1024.6
20260508173649 46 234 3.0 7.0 0.00 0.00 0.00 46 1024.5
20260508173450 46 222 2.0 7.0 0.00 0.00 0.00 46 1024.5
20260508173149 46 239 5.0 7.0 0.00 0.00 0.00 46 1024.5
20260508172649 46 319 7.0 9.0 0.00 0.00 0.00 46 1024.3
20260508172350 46 123 2.0 5.0 0.00 0.00 0.00 46 1024.3
20260508172149 46 220 2.0 4.0 0.00 0.00 0.00 45 1024.3
20260508171649 46 120 0.0 7.0 0.00 0.00 0.00 45 1024.3
20260508171250 46 312 1.0 7.0 0.00 0.00 0.00 46 1024.2
20260508171149 46 295 6.0 6.0 0.00 0.00 0.00 45 1024.2
20260508170649 46 167 0.0 8.0 0.00 0.00 0.00 44 1024.2
20260508170149 47 243 5.0 11.0 0.00 0.00 0.00 43 1024.2
20260508165649 47 265 1.0 7.0 0.00 0.00 0.00 43 1024.2
20260508165149 47 285 0.0 8.0 0.00 0.00 0.00 44 1024.2
20260508165050 47 253 5.0 8.0 0.00 0.00 0.00 44 1024.2
20260508164649 47 338 0.0 7.0 0.00 0.00 0.00 43 1024.1
20260508164149 47 292 0.0 8.0 0.00 0.00 0.00 43 1024.1
20260508163950 47 222 4.0 8.0 0.00 0.00 0.00 43 1024.1
20260508163649 47 272 2.0 12.0 0.00 0.00 0.00 43 1024.2
20260508163149 47 299 5.0 12.0 0.00 0.00 0.00 42 1024.1
20260508162850 47 261 5.0 12.0 0.00 0.00 0.00 42 1024.1
20260508162649 47 196 0.0 6.0 0.00 0.00 0.00 43 1024.0
20260508162149 48 278 3.0 9.0 0.00 0.00 0.00 42 1024.0
20260508161750 48 250 1.0 9.0 0.00 0.00 0.00 42 1024.0
20260508161649 48 19 3.0 9.0 0.00 0.00 0.00 41 1024.0
20260508161149 48 60 1.0 9.0 0.00 0.00 0.00 42 1024.1
20260508160649 48 113 6.0 6.0 0.00 0.00 0.00 41 1024.1
20260508160149 48 80 1.0 8.0 0.00 0.00 0.00 41 1024.1
20260508155649 48 288 1.0 9.0 0.00 0.00 0.00 41 1024.0
20260508155550 48 286 1.0 9.0 0.00 0.00 0.00 40 1024.1
20260508155149 48 61 2.0 9.0 0.00 0.00 0.00 40 1024.0
20260508154649 48 295 3.0 9.0 0.00 0.00 0.00 40 1024.0
20260508154450 49 182 3.0 9.0 0.00 0.00 0.00 40 1023.9
20260508154149 49 191 1.0 8.0 0.00 0.00 0.00 41 1024.0
20260508153649 49 208 3.0 9.0 0.00 0.00 0.00 41 1024.1
20260508153350 49 326 1.0 11.0 0.00 0.00 0.00 40 1024.1
20260508153149 49 267 7.0 12.0 0.00 0.00 0.00 39 1024.0
20260508152649 49 317 3.0 9.0 0.00 0.00 0.00 38 1024.1
20260508152250 50 104 2.0 9.0 0.00 0.00 0.00 38 1024.1
20260508152149 50 310 3.0 8.0 0.00 0.00 0.00 38 1024.1
20260508151649 50 115 0.0 10.0 0.00 0.00 0.00 38 1024.1
20260508151149 51 7 0.0 7.0 0.00 0.00 0.00 40 1024.1
20260508150649 50 336 0.0 9.0 0.00 0.00 0.00 39 1024.1
20260508150149 51 312 2.0 7.0 0.00 0.00 0.00 39 1024.0
20260508150050 51 309 3.0 7.0 0.00 0.00 0.00 39 1024.1
20260508145649 50 254 1.0 9.0 0.00 0.00 0.00 38 1024.1
20260508145149 50 220 2.0 10.0 0.00 0.00 0.00 39 1024.0
20260508144950 50 286 2.0 10.0 0.00 0.00 0.00 39 1024.0
20260508144649 50 343 2.0 10.0 0.00 0.00 0.00 40 1024.1
20260508144149 49 229 3.0 11.0 0.00 0.00 0.00 40 1024.2
20260508143850 49 305 3.0 11.0 0.00 0.00 0.00 39 1024.1
20260508143649 49 298 5.0 11.0 0.00 0.00 0.00 41 1024.1
20260508143149 50 209 7.0 11.0 0.00 0.00 0.00 39 1024.1
20260508142750 51 50 1.0 15.0 0.00 0.00 0.00 39 1024.1
20260508142649 51 307 0.0 15.0 0.00 0.00 0.00 38 1024.1
20260508142149 51 268 5.0 8.0 0.00 0.00 0.00 38 1024.1
20260508141649 51 267 3.0 9.0 0.00 0.00 0.00 38 1024.2
20260508141149 51 300 2.0 12.0 0.00 0.00 0.00 38 1024.2
20260508140649 51 295 1.0 7.0 0.00 0.00 0.00 39 1024.1
20260508140550 51 94 4.0 7.0 0.00 0.00 0.00 42 1024.2
20260508140149 51 146 1.0 11.0 0.00 0.00 0.00 40 1024.2
20260508135649 51 330 0.0 7.0 0.00 0.00 0.00 39 1024.2
20260508135450 51 358 3.0 6.0 0.00 0.00 0.00 40 1024.2
20260508135149 51 354 1.0 8.0 0.00 0.00 0.00 40 1024.3
20260508134649 50 236 2.0 7.0 0.00 0.00 0.00 42 1024.2
20260508134350 50 170 4.0 7.0 0.00 0.00 0.00 42 1024.3
20260508134149 50 226 6.0 11.0 0.00 0.00 0.00 40 1024.3
20260508133649 50 246 11.0 11.0 0.00 0.00 0.00 41 1024.3
20260508133250 50 244 1.0 7.0 0.00 0.00 0.00 42 1024.5
20260508133149 50 23 1.0 7.0 0.00 0.00 0.00 42 1024.3
20260508132649 49 286 2.0 8.0 0.00 0.00 0.00 42 1024.3
20260508132149 49 216 3.0 12.0 0.00 0.00 0.00 41 1024.5
20260508131649 50 302 4.0 9.0 0.00 0.00 0.00 42 1024.3
20260508131149 49 32 0.0 10.0 0.00 0.00 0.00 44 1024.5
20260508131050 49 63 1.0 10.0 0.00 0.00 0.00 43 1024.5
20260508130649 50 288 3.0 8.0 0.00 0.00 0.00 41 1024.3
20260508130149 50 81 2.0 13.0 0.00 0.00 0.00 40 1024.3
20260508125950 50 8 3.0 11.0 0.00 0.00 0.00 41 1024.5
20260508125649 50 298 0.0 15.0 0.00 0.00 0.00 40 1024.5
20260508125149 50 232 4.0 6.0 0.00 0.00 0.00 42 1024.3
20260508124850 50 251 3.0 7.0 0.00 0.00 0.00 41 1024.3
20260508124649 50 340 0.0 8.0 0.00 0.00 0.00 42 1024.3
20260508124149 50 309 1.0 7.0 0.00 0.00 0.00 43 1024.3
20260508123750 49 135 3.0 13.0 0.00 0.00 0.00 42 1024.2
20260508123649 49 333 4.0 13.0 0.00 0.00 0.00 41 1024.2
20260508123149 50 289 5.0 9.0 0.00 0.00 0.00 41 1024.1
20260508122649 49 104 0.0 14.0 0.00 0.00 0.00 41 1024.1
20260508122149 49 254 4.0 13.0 0.00 0.00 0.00 42 1024.1
20260508121649 49 278 7.0 13.0 0.00 0.00 0.00 41 1024.2
20260508121550 49 284 8.0 13.0 0.00 0.00 0.00 40 1024.2
20260508121149 50 105 2.0 9.0 0.00 0.00 0.00 41 1024.1
20260508120649 50 316 3.0 11.0 0.00 0.00 0.00 41 1024.2
20260508120450 50 215 3.0 11.0 0.00 0.00 0.00 40 1024.2
20260508120149 50 196 2.0 11.0 0.00 0.00 0.00 40 1024.2
20260508115649 49 199 9.0 13.0 0.00 0.00 0.00 41 1024.1
20260508115350 49 293 6.0 13.0 0.00 0.00 0.00 40 1024.1
20260508115149 49 289 2.0 10.0 0.00 0.00 0.00 42 1024.1
20260508114649 49 292 2.0 8.0 0.00 0.00 0.00 43 1024.1
20260508114250 48 274 1.0 8.0 0.00 0.00 0.00 42 1024.1
20260508114149 48 341 1.0 8.0 0.00 0.00 0.00 43 1024.1
20260508113649 48 295 2.0 10.0 0.00 0.00 0.00 42 1024.1
20260508113149 48 278 1.0 3.0 0.00 0.00 0.00 43 1024.2
20260508112649 47 309 3.0 10.0 0.00 0.00 0.00 43 1024.2
20260508112149 48 275 6.0 9.0 0.00 0.00 0.00 42 1024.1
20260508112050 48 292 7.0 9.0 0.00 0.00 0.00 41 1024.1
20260508111649 48 239 3.0 11.0 0.00 0.00 0.00 41 1024.2
20260508111149 48 12 2.0 16.0 0.00 0.00 0.00 40 1024.1
20260508110950 49 306 4.0 16.0 0.00 0.00 0.00 41 1024.2
20260508110649 49 326 0.0 7.0 0.00 0.00 0.00 40 1024.3
20260508110149 49 310 0.0 12.0 0.00 0.00 0.00 39 1024.2
20260508105850 49 279 2.0 15.0 0.00 0.00 0.00 39 1024.2
20260508105649 50 315 6.0 15.0 0.00 0.00 0.00 39 1024.2
20260508105149 51 102 1.0 8.0 0.00 0.00 0.00 38 1024.2
20260508104750 51 19 2.0 8.0 0.00 0.00 0.00 39 1024.1
20260508104649 50 358 4.0 7.0 0.00 0.00 0.00 39 1024.1
20260508104149 50 351 3.0 8.0 0.00 0.00 0.00 40 1024.1
20260508103649 50 333 1.0 7.0 0.00 0.00 0.00 39 1024.2
20260508103149 50 286 1.0 7.0 0.00 0.00 0.00 38 1024.1
20260508102649 50 149 0.0 11.0 0.00 0.00 0.00 40 1024.1
20260508102550 50 150 3.0 11.0 0.00 0.00 0.00 39 1024.1
20260508102149 50 345 0.0 8.0 0.00 0.00 0.00 39 1024.1
20260508101649 49 274 1.0 10.0 0.00 0.00 0.00 38 1024.2
20260508101450 49 74 0.0 13.0 0.00 0.00 0.00 38 1024.1
20260508101149 48 326 2.0 13.0 0.00 0.00 0.00 38 1024.1
20260508100649 49 284 2.0 8.0 0.00 0.00 0.00 39 1024.1
20260508100350 49 26 2.0 8.0 0.00 0.00 0.00 41 1024.0
20260508100149 48 302 4.0 4.0 0.00 0.00 0.00 41 1024.1
20260508095649 48 164 3.0 5.0 0.00 0.00 0.00 41 1024.1
20260508095250 48 286 3.0 9.0 0.00 0.00 0.00 41 1024.1
20260508095149 48 358 3.0 9.0 0.00 0.00 0.00 41 1024.1
20260508094649 48 298 0.0 8.0 0.00 0.00 0.00 42 1024.1
20260508094149 48 61 1.0 10.0 0.00 0.00 0.00 43 1024.1
20260508093649 48 22 2.0 8.0 0.00 0.00 0.00 43 1024.1
20260508093149 48 331 0.0 5.0 0.00 0.00 0.00 44 1023.9
20260508093050 48 26 2.0 8.0 0.00 0.00 0.00 44 1024.1
20260508092649 49 285 5.0 12.0 0.00 0.00 0.00 44 1024.0
20260508092149 48 116 3.0 12.0 0.00 0.00 0.00 43 1024.0
20260508091950 48 137 2.0 12.0 0.00 0.00 0.00 44 1023.9
20260508091649 48 191 2.0 13.0 0.00 0.00 0.00 44 1024.0
20260508091149 47 285 0.0 4.0 0.00 0.00 0.00 44 1024.0
20260508090850 47 315 0.0 7.0 0.00 0.00 0.00 44 1023.9
20260508090649 47 265 1.0 7.0 0.00 0.00 0.00 43 1024.0
20260508090149 47 219 2.0 8.0 0.00 0.00 0.00 43 1024.0
20260508085750 47 118 7.0 7.0 0.00 0.00 0.00 45 1023.9
20260508085649 47 123 0.0 6.0 0.00 0.00 0.00 45 1023.9
20260508085149 46 4 0.0 8.0 0.00 0.00 0.00 45 1023.9
20260508084649 46 275 0.0 4.0 0.00 0.00 0.00 45 1023.8
20260508084149 47 331 2.0 7.0 0.00 0.00 0.00 46 1023.9
20260508083649 46 194 2.0 10.0 0.00 0.00 0.00 47 1023.7
20260508083550 46 154 1.0 10.0 0.00 0.00 0.00 47 1023.8
20260508083149 45 208 0.0 8.0 0.00 0.00 0.00 48 1023.8
20260508082649 45 23 2.0 7.0 0.00 0.00 0.00 47 1023.8
20260508082450 44 236 4.0 7.0 0.00 0.00 0.00 48 1023.7
20260508082149 44 306 3.0 6.0 0.00 0.00 0.00 47 1023.8
20260508081649 44 299 1.0 6.0 0.00 0.00 0.00 47 1023.8
20260508081350 45 57 1.0 7.0 0.00 0.00 0.00 46 1023.8
20260508081149 45 279 2.0 7.0 0.00 0.00 0.00 46 1023.8
20260508080649 45 286 3.0 9.0 0.00 0.00 0.00 44 1023.8
20260508080250 44 59 5.0 5.0 0.00 0.00 0.00 43 1023.8
20260508080149 44 147 0.0 8.0 0.00 0.00 0.00 43 1023.9
20260508075649 44 302 1.0 5.0 0.00 0.00 0.00 43 1023.8
20260508075149 44 293 0.0 6.0 0.00 0.00 0.00 41 1023.9
20260508074649 43 158 3.0 10.0 0.00 0.00 0.00 41 1023.8
20260508074149 43 163 1.0 8.0 0.00 0.00 0.00 40 1023.9
20260508074050 43 222 0.0 8.0 0.00 0.00 0.00 41 1023.9
20260508073649 43 299 1.0 4.0 0.00 0.00 0.00 41 1023.9
20260508073149 42 257 1.0 7.0 0.00 0.00 0.00 40 1023.9
20260508072950 42 118 0.0 5.0 0.00 0.00 0.00 39 1023.9
20260508072649 42 118 1.0 5.0 0.00 0.00 0.00 39 1023.8
20260508072149 41 227 2.0 7.0 0.00 0.00 0.00 38 1023.9
20260508071850 41 21 0.0 7.0 0.00 0.00 0.00 37 1023.8
20260508071649 41 348 2.0 3.0 0.00 0.00 0.00 38 1023.9
20260508071149 41 341 1.0 5.0 0.00 0.00 0.00 38 1023.9